sat.trackr.live / text

‹ back to catalog

STARLINK-3281

NORAD 50183 · 2021-125AD

PAYLOAD ACTIVE UNKNOWN

§ Identity

Operator
Country
US
Launch date
2021-12-18
Launch site
AFWTR
Launch vehicle
Mass (kg)
RCS (m²)

Purposes: comms

External: N2YO · Heavens-Above · Gunter

§ Orbital elements

Epoch: 2026-09-09T22:56:50.311104Z

Period
95.31 min
Inclination
53.1593°
Eccentricity
0.0002891
Mean motion
15.10883177 rev/d
Perigee alt
531.5 km
Apogee alt
535.5 km
Semi-major
6,911.6 km
B*
7.7407e-4
RAAN
140.7417°
Arg perigee
86.2468°
Mean anomaly
273.8854°
Rev number
26,447

§ Raw data

STARLINK-32811 50183U 21125AD  26252.95613786  .00012762  00000+0  77407-3 0  99952 50183  53.1593 140.7417 0002891  86.2468 273.8854 15.10883177264474

JSON: /api/v1/satellites/50183 · /tle

For live sub-satellite position, see the globe view (requires WebGL).

§ Visibility from observer

Set your observer location to see the next 7 days of passes ≥ 10°. The values pass through the URL so the page stays shareable.

No JS? Fill the form by hand. The geolocation button needs JavaScript.